Denton, TX

6:18 PM CDT on September 24, 2016 (GMT -0500)
Denton Municipal

Weather History for KDTO - October, 2013

Change the Weather History Date:

Tuesday, October 1, 2013

  Actual Average Record
Temperature  
Mean Temperature 72 °F -  
Max Temperature 87 °F 81 °F 93 °F (1998)
Min Temperature 59 °F 56 °F 43 °F (1999)
Cooling Degree Days 8    
Growing Degree Days 22 (Base 50)    
Moisture  
Dew Point 63 °F    
Average Humidity 72    
Maximum Humidity 100    
Minimum Humidity 41    
Precipitation  
Precipitation 0.00 in - - ()
Sea Level Pressure  
Sea Level Pressure 29.87 in    
Wind  
Wind Speed 6 mph (SE)    
Max Wind Speed 14 mph    
Max Gust Speed 23 mph    
Visibility 10 miles    
Events      
Averages and records for this station are not official NWS values.
T = Trace of Precipitation, MM = Missing Value Source: NWS Daily Summary

Daily Weather History Graph

Daily Weather History Graph

Search for Another Location

Airport or City:

Trip Planner

Search our weather history database for the weather conditions in past years. The results will help you decide how hot, cold, wet, or windy it might be!

Date:

Astronomy

Oct. 01, 2013 Rise Set
Actual Time 7:23 AM CDT 7:12 PM CDT
Civil Twilight 6:58 AM CDT 7:37 PM CDT
Nautical Twilight 6:29 AM CDT 8:06 PM CDT
Astronomical Twilight 6:00 AM CDT 8:35 PM CDT
Moon 4:07 AM CDT (10/1) 5:10 PM CDT (10/1)
Length of Visible Light 12h 39m
Length of Day
11h 49m
Waning Crescent, 12% of the Moon is Illuminated
Oct 1
Waning Crescent
Oct 4
New
Oct 11
First Quarter
Oct 18
Full
Oct 26
Last Quarter

Hourly Weather History & Observations

Time (CDT) Temp. Heat Index Dew Point Humidity Pressure Visibility Wind Dir Wind Speed Gust Speed Precip Events Conditions
12:53 AM 63.0 °F - 59.0 °F 87% 29.82 in 10.0 mi South 3.5 mph - N/A   Clear
1:53 AM 64.9 °F - 60.1 °F 84% 29.82 in 10.0 mi SE 4.6 mph - N/A   Clear
2:53 AM 63.0 °F - 60.1 °F 90% 29.83 in 10.0 mi Calm Calm - N/A   Clear
3:53 AM 62.1 °F - 60.1 °F 93% 29.83 in 10.0 mi Calm Calm - N/A   Clear
4:53 AM 63.0 °F - 60.1 °F 90% 29.83 in 10.0 mi Calm Calm - N/A   Clear
5:53 AM 61.0 °F - 59.0 °F 93% 29.85 in 10.0 mi ESE 3.5 mph - N/A   Clear
6:53 AM 59.0 °F - 59.0 °F 100% 29.87 in 9.0 mi SE 4.6 mph - N/A   Clear
7:53 AM 62.1 °F - 61.0 °F 96% 29.89 in 3.0 mi SE 4.6 mph - N/A   Clear
8:53 AM 68.0 °F - 66.0 °F 93% 29.91 in 7.0 mi SE 6.9 mph - N/A   Clear
9:53 AM 73.9 °F - 68.0 °F 82% 29.92 in 10.0 mi SE 9.2 mph - N/A   Clear
10:53 AM 79.0 °F - 69.1 °F 72% 29.93 in 10.0 mi SSE 11.5 mph - N/A   Clear
11:53 AM 81.0 °F 84.1 °F 69.1 °F 67% 29.92 in 10.0 mi SSE 13.8 mph 23.0 mph N/A   Clear
12:53 PM 82.9 °F 86.5 °F 69.1 °F 63% 29.91 in 10.0 mi SSE 13.8 mph - N/A   Clear
1:53 PM 84.9 °F 88.2 °F 68.0 °F 57% 29.88 in 10.0 mi South 11.5 mph - N/A   Clear
2:53 PM 86.0 °F 87.6 °F 64.9 °F 49% 29.87 in 10.0 mi SSE 13.8 mph 20.7 mph N/A   Clear
3:53 PM 86.0 °F 85.7 °F 60.1 °F 41% 29.86 in 10.0 mi SSE 12.7 mph - N/A   Scattered Clouds
4:53 PM 86.0 °F 86.1 °F 61.0 °F 43% 29.85 in 10.0 mi SSE 11.5 mph - N/A   Partly Cloudy
5:53 PM 86.0 °F 86.1 °F 61.0 °F 43% 29.85 in 10.0 mi SSE 13.8 mph - N/A   Clear
6:53 PM 82.0 °F 82.7 °F 61.0 °F 49% 29.85 in 10.0 mi SSE 6.9 mph - N/A   Clear
7:53 PM 79.0 °F - 61.0 °F 54% 29.86 in 10.0 mi SE 4.6 mph - N/A   Clear
8:53 PM 77.0 °F - 63.0 °F 62% 29.87 in 10.0 mi ESE 4.6 mph - N/A   Partly Cloudy
9:53 PM 73.9 °F - 64.0 °F 71% 29.89 in 10.0 mi ESE 4.6 mph - N/A   Clear
10:53 PM 75.9 °F - 66.9 °F 74% 29.90 in 10.0 mi ESE 5.8 mph - N/A   Partly Cloudy
11:53 PM 75.0 °F - 68.0 °F 79% 29.89 in 10.0 mi SE 8.1 mph - N/A   Partly Cloudy